{"data":{"norad_id":58134,"epoch":"2026-09-20T00:07:06.098880Z","epoch_age_seconds":183186,"freshness":"STALE","line1":"1 58134U 23162S   26263.00493170 -.00000493  00000+0 -84126-5 0  9991","line2":"2 58134  43.0025 115.2062 0001300 272.7158  87.3544 15.27570020162021","mean_motion":15.2757002,"eccentricity":0.00013,"inclination_deg":43.0025,"raan_deg":115.2062,"arg_perigee_deg":272.7158,"mean_anomaly_deg":87.3544,"bstar":-8.4126e-6,"rev_number":16202,"period_min":94.267364582083,"perigee_km":482.18702183525,"apogee_km":483.97093799003,"semimajor_km":6861.2159799126,"source":"CELESTRAK","updated_at":"2026-09-21T09:00:33.793912Z"}}